Regional Weather Roundup
Issued by NWS Kansas City/Pleasant Hill, MO

Home | Current Version | Previous Version | Text Only | Print | Product List | Glossary On
Versions: 1 2 3 4 5 6 7 8 9 10 11 12 13 14 15 16 17 18 19 20 21 22 23 24 25 26 27
000
ASUS43 KEAX 301310
RWREAX

WEATHER ROUNDUP FOR EASTERN KANSAS AND NORTHWEST MISSOURI
NATIONAL WEATHER SERVICE KANSAS CITY/PLEASANT HILL MO
800 AM CDT TUE MAY 30 2017

KSZ040-057-103>105-MOZ028-029-037-043-301400-
...KANSAS CITY METROPOLITAN AREA...

CITY           SKY/WX    TMP DP  RH WIND       PRES   REMARKS
K.C. INTL      MOSUNNY   60  51  72 S3        30.08S
K.C. DOWNTOWN  SUNNY     63  55  75 CALM      30.08S
LEES SUMMIT    CLOUDY    65  47  52 SE5       30.10R
OLATHE - IXD   CLOUDY    64  48  56 SE6       30.09F
OLATHE - OJC   CLOUDY    62  51  67 SE6       30.08F
LAWRENCE       MOSUNNY   57  53  86 W3        30.11R

$$

MOZ001>008-011>017-020>025-030>033-038>040-044>046-053-054-301400-
...NORTHERN AND CENTRAL MISSOURI...

CITY           SKY/WX    TMP DP  RH WIND       PRES   REMARKS
ST. JOSEPH     SUNNY     58  53  84 CALM      30.08F
MOSBY          SUNNY     55  50  82 CALM      30.09S
WARRENSBURG    CLOUDY    59  52  77 CALM      30.09S
WHITEMAN AFB   SUNNY     64  55  72 CALM      30.09R
CLINTON        CLOUDY    57  57 100 CALM      30.11R
SEDALIA        CLOUDY    65  52  62 CALM      30.11R
WARSAW         NOT AVBL
CHILLICOTHE      N/A     61  52  72 CALM      30.08F
KIRKSVILLE     SUNNY    N/A N/A N/A W3        30.08S

$$

MOZ041-047>049-056>058-063>065-088>090-097-301400-
...EASTERN AND SOUTHERN MISSOURI...

CITY           SKY/WX    TMP DP  RH WIND       PRES   REMARKS
ST. LOUIS INTL MOSUNNY   68  54  60 W6        30.08R
SPIRIT OF STL  MOSUNNY   64  56  75 SW5       30.08R
COLUMBIA       SUNNY     66  51  58 CALM      30.10R
JEFFERSON CITY MOSUNNY   62  56  80 CALM      30.10R
ROLLA          MOSUNNY   65  53  65 N3        30.09R
OSAGE BEACH    MOSUNNY   57  56  96 CALM      30.11R
SPRINGFIELD    SUNNY     67  59  75 CALM      30.10R
BRANSON        MOSUNNY   68  57  68 W3        30.12R
JOPLIN         PTSUNNY   64  60  87 E6        30.09F
WEST PLAINS    SUNNY     69  61  75 NW5       30.11R

$$

IAZ060-094-KSZ022-034>040-054-083-096-NEZ052-066-093-301400-
...KANSAS...SOUTHEAST NEBRASKA AND IOWA...

CITY           SKY/WX    TMP DP  RH WIND       PRES   REMARKS
TOPEKA         CLOUDY    58  55  90 CALM      30.10R
MANHATTAN      MOSUNNY   57  52  83 CALM      30.10F
EMPORIA        CLOUDY    59  54  83 S5        30.12F
CHANUTE        CLOUDY    61  52  72 MISG      30.13R
WICHITA        CLOUDY    63  58  83 SE3       30.10F
OMAHA          MOSUNNY   61  46  57 VRB3      30.06R
LINCOLN        CLOUDY    57  44  62 W3        30.09R
LAMONI         SUNNY     59  48  67 SW7       30.06S
DES MOINES     PTSUNNY   60  48  64 W3        30.03S

$$





USA.gov is the U.S. government's official web portal to all federal, state and local government web resources and services.